Time,TemperatureF,DewpointF,PressureIn,WindDirection,WindDirectionDegrees,WindSpeedMPH,WindSpeedGustMPH,Humidity,HourlyPrecipIn,Conditions,Clouds,dailyrainin,SoftwareType,DateUTC
2013-09-17 00:01:00,50.1,46.4,30.29,WNW,299,0.0,0.0,87,0.00,CLR,,0.00,WeatherDisplay:10.37,2013-09-17 04:01:00,
2013-09-17 00:02:00,49.8,46.1,30.28,WNW,299,0.0,0.0,87,0.00,CLR,,0.00,WeatherDisplay:10.37,2013-09-17 04:02:00,
2013-09-17 00:04:00,49.8,46.1,30.29,WNW,299,0.0,0.0,87,0.00,CLR,,0.00,WeatherDisplay:10.37,2013-09-17 04:04:00,
2013-09-17 00:05:00,49.9,46.2,30.29,WNW,299,0.0,0.0,87,0.00,CLR,,0.00,WeatherDisplay:10.37,2013-09-17 04:05:00,
2013-09-17 00:08:00,49.8,46.1,30.29,WNW,299,0.0,0.0,87,0.00,CLR,,0.00,WeatherDisplay:10.37,2013-09-17 04:08:00,
2013-09-17 00:13:00,49.6,45.9,30.30,WNW,299,0.0,0.0,87,0.00,CLR,,0.00,WeatherDisplay:10.37,2013-09-17 04:13:00,
2013-09-17 00:18:00,49.2,45.5,30.30,WNW,299,0.0,0.0,87,0.00,CLR,,0.00,WeatherDisplay:10.37,2013-09-17 04:18:00,
2013-09-17 00:23:00,49.3,45.6,30.30,WNW,299,0.0,0.0,87,0.00,CLR,,0.00,WeatherDisplay:10.37,2013-09-17 04:23:00,
2013-09-17 00:25:00,49.2,45.5,30.30,WNW,299,0.0,0.0,87,0.00,CLR,,0.00,WeatherDisplay:10.37,2013-09-17 04:25:00,
2013-09-17 00:30:00,49.1,45.4,30.30,WNW,299,0.0,0.0,87,0.00,CLR,,0.00,WeatherDisplay:10.37,2013-09-17 04:30:00,
2013-09-17 00:35:00,49.0,45.3,30.30,WNW,299,0.0,0.0,87,0.00,CLR,,0.00,WeatherDisplay:10.37,2013-09-17 04:35:00,
2013-09-17 00:40:00,48.8,45.1,30.31,NNW,328,6.2,6.2,87,0.00,CLR,,0.00,WeatherDisplay:10.37,2013-09-17 04:40:00,
2013-09-17 00:45:00,48.8,45.1,30.31,North,4,0.0,0.0,87,0.00,CLR,,0.00,WeatherDisplay:10.37,2013-09-17 04:45:00,
2013-09-17 00:50:00,48.7,45.0,30.31,North,4,0.0,0.0,87,0.00,CLR,,0.00,WeatherDisplay:10.37,2013-09-17 04:50:00,
2013-09-17 00:55:00,48.2,44.6,30.31,NE,47,4.6,4.6,87,0.00,CLR,,0.00,WeatherDisplay:10.37,2013-09-17 04:55:00,
2013-09-17 01:01:00,48.1,44.5,30.31,NNE,14,6.5,6.5,87,0.00,CLR,,0.00,WeatherDisplay:10.37,2013-09-17 05:01:00,
2013-09-17 01:06:00,48.1,44.5,30.31,NNE,14,7.9,7.9,87,0.00,CLR,,0.00,WeatherDisplay:10.37,2013-09-17 05:06:00,
2013-09-17 01:11:00,48.1,44.1,30.32,NNE,30,3.1,3.1,86,0.00,CLR,,0.00,WeatherDisplay:10.37,2013-09-17 05:11:00,
2013-09-17 01:16:00,48.1,44.1,30.32,North,7,4.6,4.6,86,0.00,CLR,,0.00,WeatherDisplay:10.37,2013-09-17 05:16:00,
2013-09-17 01:21:00,48.0,44.1,30.32,NNE,23,2.8,2.8,86,0.00,CLR,,0.00,WeatherDisplay:10.37,2013-09-17 05:21:00,
2013-09-17 01:26:00,47.9,44.0,30.32,NW,304,0.0,0.0,86,0.00,CLR,,0.00,WeatherDisplay:10.37,2013-09-17 05:26:00,
2013-09-17 01:31:00,47.7,44.1,30.32,North,350,3.5,3.5,87,0.00,CLR,,0.00,WeatherDisplay:10.37,2013-09-17 05:31:00,
2013-09-17 01:36:00,47.6,44.0,30.32,NNW,336,1.2,0.0,87,0.00,CLR,,0.00,WeatherDisplay:10.37,2013-09-17 05:36:00,
2013-09-17 01:41:00,47.3,44.0,30.33,NNW,328,1.2,1.2,88,0.00,CLR,,0.00,WeatherDisplay:10.37,2013-09-17 05:41:00,
2013-09-17 01:46:00,47.0,43.7,30.33,NNW,328,0.0,0.0,88,0.00,CLR,,0.00,WeatherDisplay:10.37,2013-09-17 05:46:00,
2013-09-17 01:51:00,47.0,43.7,30.33,North,1,2.3,0.0,88,0.00,CLR,,0.00,WeatherDisplay:10.37,2013-09-17 05:51:00,
2013-09-17 01:56:00,46.7,43.4,30.33,North,353,2.3,2.3,88,0.00,CLR,,0.00,WeatherDisplay:10.37,2013-09-17 05:56:00,
2013-09-17 02:01:00,46.7,43.4,30.33,North,357,2.4,2.4,88,0.00,CLR,,0.00,WeatherDisplay:10.37,2013-09-17 06:01:00,
2013-09-17 02:06:00,46.7,43.4,30.33,North,357,0.0,0.0,88,0.00,CLR,,0.00,WeatherDisplay:10.37,2013-09-17 06:06:00,
2013-09-17 02:11:00,46.4,43.1,30.33,North,352,3.0,3.0,88,0.00,CLR,,0.00,WeatherDisplay:10.37,2013-09-17 06:11:00,
2013-09-17 02:16:00,46.3,42.7,30.33,NNE,28,1.2,1.2,87,0.00,CLR,,0.00,WeatherDisplay:10.37,2013-09-17 06:16:00,
2013-09-17 02:21:00,45.9,42.6,30.33,North,0,2.7,2.7,88,0.00,CLR,,0.00,WeatherDisplay:10.37,2013-09-17 06:21:00,
2013-09-17 02:26:00,45.9,42.6,30.33,North,0,0.0,0.0,88,0.00,CLR,,0.00,WeatherDisplay:10.37,2013-09-17 06:26:00,
2013-09-17 02:31:00,45.6,42.3,30.33,North,0,0.0,0.0,88,0.00,CLR,,0.00,WeatherDisplay:10.37,2013-09-17 06:31:00,
2013-09-17 02:36:00,45.5,42.2,30.33,North,0,0.0,0.0,88,0.00,CLR,,0.00,WeatherDisplay:10.37,2013-09-17 06:36:00,
2013-09-17 02:41:00,45.6,42.6,30.33,NNE,23,5.1,5.1,89,0.00,CLR,,0.00,WeatherDisplay:10.37,2013-09-17 06:41:00,
2013-09-17 02:46:00,45.4,42.4,30.34,NNE,18,0.3,0.3,89,0.00,CLR,,0.00,WeatherDisplay:10.37,2013-09-17 06:46:00,
2013-09-17 02:51:00,44.9,41.6,30.34,NNW,336,6.9,6.9,88,0.00,CLR,,0.00,WeatherDisplay:10.37,2013-09-17 06:51:00,
2013-09-17 02:56:00,44.9,41.6,30.34,NW,313,0.0,0.0,88,0.00,CLR,,0.00,WeatherDisplay:10.37,2013-09-17 06:56:00,
2013-09-17 03:01:00,44.6,41.3,30.34,NW,313,0.0,0.0,88,0.00,CLR,,0.00,WeatherDisplay:10.37,2013-09-17 07:01:00,
2013-09-17 03:06:00,44.8,41.5,30.34,NNW,343,0.0,0.0,88,0.00,CLR,,0.00,WeatherDisplay:10.37,2013-09-17 07:06:00,
2013-09-17 03:11:00,44.5,41.2,30.35,NNW,343,0.0,0.0,88,0.00,CLR,,0.00,WeatherDisplay:10.37,2013-09-17 07:11:00,
2013-09-17 03:16:00,44.5,41.2,30.35,North,354,3.5,3.5,88,0.00,CLR,,0.00,WeatherDisplay:10.37,2013-09-17 07:16:00,
2013-09-17 03:21:00,44.5,41.2,30.34,NNW,343,0.0,0.0,88,0.00,CLR,,0.00,WeatherDisplay:10.37,2013-09-17 07:21:00,
2013-09-17 03:26:00,44.2,40.9,30.35,NW,322,3.5,3.5,88,0.00,CLR,,0.00,WeatherDisplay:10.37,2013-09-17 07:26:00,
2013-09-17 03:31:00,44.1,41.1,30.35,SW,234,2.3,2.3,89,0.00,CLR,,0.00,WeatherDisplay:10.37,2013-09-17 07:31:00,
2013-09-17 03:36:00,43.9,40.9,30.35,NNW,333,2.5,2.5,89,0.00,CLR,,0.00,WeatherDisplay:10.37,2013-09-17 07:36:00,
2013-09-17 03:41:00,44.0,41.3,30.35,WNW,289,4.6,4.6,90,0.00,CLR,,0.00,WeatherDisplay:10.37,2013-09-17 07:41:00,
2013-09-17 03:46:00,43.9,41.2,30.35,WNW,288,3.5,3.5,90,0.00,CLR,,0.00,WeatherDisplay:10.37,2013-09-17 07:46:00,
2013-09-17 03:51:00,44.1,41.1,30.35,NE,41,6.9,6.9,89,0.00,CLR,,0.00,WeatherDisplay:10.37,2013-09-17 07:51:00,
2013-09-17 03:56:00,44.0,41.3,30.35,NW,323,1.3,1.3,90,0.00,CLR,,0.00,WeatherDisplay:10.37,2013-09-17 07:56:00,
2013-09-17 04:01:00,43.8,41.1,30.24,North,0,2.7,2.7,90,0.00,CLR,,0.00,WeatherDisplay:10.37,2013-09-17 08:01:00,
2013-09-17 04:06:00,43.5,40.8,30.36,NNW,329,2.1,2.1,90,0.00,CLR,,0.00,WeatherDisplay:10.37,2013-09-17 08:06:00,
2013-09-17 04:11:00,43.6,41.2,30.36,NNE,21,2.3,2.3,91,0.00,CLR,,0.00,WeatherDisplay:10.37,2013-09-17 08:11:00,
2013-09-17 04:16:00,43.5,41.1,30.35,NNE,24,0.0,0.0,91,0.00,CLR,,0.00,WeatherDisplay:10.37,2013-09-17 08:16:00,
2013-09-17 04:21:00,43.3,40.6,30.35,South,191,4.6,4.6,90,0.00,CLR,,0.00,WeatherDisplay:10.37,2013-09-17 08:21:00,
2013-09-17 04:26:00,43.0,40.6,30.35,NW,323,0.0,0.0,91,0.00,CLR,,0.00,WeatherDisplay:10.37,2013-09-17 08:26:00,
2013-09-17 04:31:00,42.8,40.4,30.35,NW,323,0.0,0.0,91,0.00,CLR,,0.00,WeatherDisplay:10.37,2013-09-17 08:31:00,
2013-09-17 04:36:00,42.8,40.7,30.35,WNW,301,2.9,2.9,92,0.00,CLR,,0.00,WeatherDisplay:10.37,2013-09-17 08:36:00,
2013-09-17 04:41:00,42.7,40.6,30.35,NW,319,0.0,0.0,92,0.00,CLR,,0.00,WeatherDisplay:10.37,2013-09-17 08:41:00,
2013-09-17 04:46:00,42.5,40.4,30.35,NW,319,0.0,0.0,92,0.00,CLR,,0.00,WeatherDisplay:10.37,2013-09-17 08:46:00,
2013-09-17 04:51:00,42.5,40.1,30.36,West,274,5.2,5.2,91,0.00,CLR,,0.00,WeatherDisplay:10.37,2013-09-17 08:51:00,
2013-09-17 04:56:00,42.5,40.4,30.36,ENE,62,0.0,0.0,92,0.00,CLR,,0.00,WeatherDisplay:10.37,2013-09-17 08:56:00,
2013-09-17 05:01:00,42.6,40.5,30.36,ENE,62,0.0,0.0,92,0.00,CLR,,0.00,WeatherDisplay:10.37,2013-09-17 09:01:00,
2013-09-17 05:06:00,42.6,40.5,30.36,ENE,62,0.0,0.0,92,0.00,CLR,,0.00,WeatherDisplay:10.37,2013-09-17 09:06:00,
2013-09-17 05:11:00,42.5,40.4,30.37,ENE,62,0.0,0.0,92,0.00,CLR,,0.00,WeatherDisplay:10.37,2013-09-17 09:11:00,
2013-09-17 05:16:00,42.5,40.4,30.37,ENE,62,0.0,0.0,92,0.00,CLR,,0.00,WeatherDisplay:10.37,2013-09-17 09:16:00,
2013-09-17 05:21:00,42.4,40.3,30.37,WNW,292,0.0,0.0,92,0.00,CLR,,0.00,WeatherDisplay:10.37,2013-09-17 09:21:00,
2013-09-17 05:26:00,42.4,40.3,30.37,WNW,292,0.0,0.0,92,0.00,CLR,,0.00,WeatherDisplay:10.37,2013-09-17 09:26:00,
2013-09-17 05:31:00,42.2,40.1,30.38,WNW,292,0.0,0.0,92,0.00,CLR,,0.00,WeatherDisplay:10.37,2013-09-17 09:31:00,
2013-09-17 05:36:00,42.0,39.9,30.38,NNE,20,1.4,0.0,92,0.00,CLR,,0.00,WeatherDisplay:10.37,2013-09-17 09:36:00,
2013-09-17 05:41:00,42.1,40.0,30.38,ENE,66,0.6,0.0,92,0.00,CLR,,0.00,WeatherDisplay:10.37,2013-09-17 09:41:00,
2013-09-17 05:46:00,42.1,40.0,30.38,North,6,0.0,0.0,92,0.00,CLR,,0.00,WeatherDisplay:10.37,2013-09-17 09:46:00,
2013-09-17 05:51:00,42.1,40.0,30.38,North,6,0.0,0.0,92,0.00,CLR,,0.00,WeatherDisplay:10.37,2013-09-17 09:51:00,
2013-09-17 05:56:00,41.9,39.8,30.38,North,6,0.0,0.0,92,0.00,CLR,,0.00,WeatherDisplay:10.37,2013-09-17 09:56:00,
2013-09-17 06:01:00,41.9,39.8,30.39,North,6,0.0,0.0,92,0.00,CLR,,0.00,WeatherDisplay:10.37,2013-09-17 10:01:00,
2013-09-17 06:06:00,41.9,39.8,30.39,North,6,0.0,0.0,92,0.00,CLR,,0.00,WeatherDisplay:10.37,2013-09-17 10:06:00,
2013-09-17 06:11:00,42.1,40.0,30.40,North,6,0.0,0.0,92,0.00,CLR,,0.00,WeatherDisplay:10.37,2013-09-17 10:11:00,
2013-09-17 06:16:00,41.9,40.1,30.40,North,6,0.0,0.0,93,0.00,CLR,,0.00,WeatherDisplay:10.37,2013-09-17 10:16:00,
2013-09-17 06:21:00,41.6,39.8,30.40,North,6,0.0,0.0,93,0.00,CLR,,0.00,WeatherDisplay:10.37,2013-09-17 10:21:00,
2013-09-17 06:26:00,41.9,40.1,30.40,North,6,0.0,0.0,93,0.00,CLR,,0.00,WeatherDisplay:10.37,2013-09-17 10:26:00,
2013-09-17 06:31:00,41.5,39.7,30.40,North,6,0.0,0.0,93,0.00,CLR,,0.00,WeatherDisplay:10.37,2013-09-17 10:31:00,
2013-09-17 06:36:00,41.4,39.6,30.40,North,352,2.3,2.3,93,0.00,CLR,,0.00,WeatherDisplay:10.37,2013-09-17 10:36:00,
2013-09-17 06:41:00,41.4,39.8,30.41,NW,319,0.0,0.0,94,0.00,CLR,,0.00,WeatherDisplay:10.37,2013-09-17 10:41:00,
2013-09-17 06:46:00,41.4,39.8,30.41,NW,319,0.0,0.0,94,0.00,CLR,,0.00,WeatherDisplay:10.37,2013-09-17 10:46:00,
2013-09-17 06:51:00,41.4,39.8,30.41,NW,319,0.0,0.0,94,0.00,CLR,,0.00,WeatherDisplay:10.37,2013-09-17 10:51:00,
2013-09-17 06:56:00,41.2,39.6,30.42,NW,305,4.8,4.8,94,0.00,CLR,,0.00,WeatherDisplay:10.37,2013-09-17 10:56:00,
2013-09-17 07:01:00,41.5,39.9,30.42,NW,326,0.0,0.0,94,0.00,CLR,,0.00,WeatherDisplay:10.37,2013-09-17 11:01:00,
2013-09-17 07:06:00,41.4,39.8,30.42,NW,326,0.0,0.0,94,0.00,CLR,,0.00,WeatherDisplay:10.37,2013-09-17 11:06:00,
2013-09-17 07:11:00,41.6,40.0,30.42,NW,326,0.0,0.0,94,0.00,CLR,,0.00,WeatherDisplay:10.37,2013-09-17 11:11:00,
2013-09-17 07:16:00,41.5,39.9,30.42,NW,326,0.0,0.0,94,0.00,CLR,,0.00,WeatherDisplay:10.37,2013-09-17 11:16:00,
2013-09-17 07:21:00,41.6,40.0,30.43,NNW,343,2.7,2.7,94,0.00,CLR,,0.00,WeatherDisplay:10.37,2013-09-17 11:21:00,
2013-09-17 07:26:00,41.6,40.0,30.43,WNW,301,1.7,1.7,94,0.00,CLR,,0.00,WeatherDisplay:10.37,2013-09-17 11:26:00,
2013-09-17 07:31:00,41.9,40.3,30.43,NW,320,2.3,2.3,94,0.00,CLR,,0.00,WeatherDisplay:10.37,2013-09-17 11:31:00,
2013-09-17 07:36:00,42.1,40.3,30.43,NW,326,3.5,3.5,93,0.00,CLR,,0.00,WeatherDisplay:10.37,2013-09-17 11:36:00,
2013-09-17 07:41:00,42.3,40.2,30.43,West,267,4.7,4.7,92,0.00,CLR,,0.00,WeatherDisplay:10.37,2013-09-17 11:41:00,
2013-09-17 07:46:00,42.7,40.6,30.43,NNW,343,6.9,6.9,92,0.00,CLR,,0.00,WeatherDisplay:10.37,2013-09-17 11:46:00,
2013-09-17 07:51:00,43.1,40.7,30.43,NE,37,3.6,3.6,91,0.00,CLR,,0.00,WeatherDisplay:10.37,2013-09-17 11:51:00,
2013-09-17 07:56:00,43.0,40.3,30.44,North,349,4.0,4.0,90,0.00,CLR,,0.00,WeatherDisplay:10.37,2013-09-17 11:56:00,
2013-09-17 08:01:00,43.5,40.8,30.44,NE,40,2.5,2.5,90,0.00,CLR,,0.00,WeatherDisplay:10.37,2013-09-17 12:01:00,
2013-09-17 08:06:00,43.7,40.7,30.44,North,8,3.7,3.7,89,0.00,CLR,,0.00,WeatherDisplay:10.37,2013-09-17 12:06:00,
2013-09-17 08:11:00,43.9,40.9,30.44,North,357,5.2,5.2,89,0.00,CLR,,0.00,WeatherDisplay:10.37,2013-09-17 12:11:00,
2013-09-17 08:16:00,43.9,40.6,30.44,North,357,5.8,5.8,88,0.00,CLR,,0.00,WeatherDisplay:10.37,2013-09-17 12:16:00,
2013-09-17 08:21:00,44.3,40.7,30.44,NE,51,8.1,8.1,87,0.00,CLR,,0.00,WeatherDisplay:10.37,2013-09-17 12:21:00,
2013-09-17 08:26:00,44.8,41.2,30.44,NNE,18,0.0,0.0,87,0.00,CLR,,0.00,WeatherDisplay:10.37,2013-09-17 12:26:00,
2013-09-17 08:31:00,45.1,41.2,30.44,NNW,344,4.6,4.6,86,0.00,CLR,,0.00,WeatherDisplay:10.37,2013-09-17 12:31:00,
2013-09-17 08:36:00,45.7,41.2,30.45,NNW,336,5.8,5.8,84,0.00,CLR,,0.00,WeatherDisplay:10.37,2013-09-17 12:36:00,
2013-09-17 08:41:00,45.9,41.1,30.45,NNW,342,4.6,4.6,83,0.00,CLR,,0.00,WeatherDisplay:10.37,2013-09-17 12:41:00,
2013-09-17 08:46:00,46.7,41.8,30.45,NNE,20,4.9,4.9,83,0.00,CLR,,0.00,WeatherDisplay:10.37,2013-09-17 12:46:00,
2013-09-17 08:51:00,47.2,42.0,30.45,North,8,2.5,2.5,82,0.00,CLR,,0.00,WeatherDisplay:10.37,2013-09-17 12:51:00,
2013-09-17 08:56:00,47.8,42.3,30.46,South,176,6.9,6.9,81,0.00,CLR,,0.00,WeatherDisplay:10.37,2013-09-17 12:56:00,
2013-09-17 09:01:00,48.3,41.8,30.46,NE,55,9.4,9.4,78,0.00,CLR,,0.00,WeatherDisplay:10.37,2013-09-17 13:01:00,
2013-09-17 09:06:00,48.6,42.1,30.46,ENE,65,4.6,4.6,78,0.00,CLR,,0.00,WeatherDisplay:10.37,2013-09-17 13:06:00,
2013-09-17 09:11:00,49.3,42.8,30.46,ESE,123,0.0,0.0,78,0.00,CLR,,0.00,WeatherDisplay:10.37,2013-09-17 13:11:00,
2013-09-17 09:16:00,50.0,42.1,30.46,NNE,13,6.9,6.9,74,0.00,CLR,,0.00,WeatherDisplay:10.37,2013-09-17 13:16:00,
2013-09-17 09:21:00,50.7,43.1,30.46,NE,37,5.8,5.8,75,0.00,CLR,,0.00,WeatherDisplay:10.37,2013-09-17 13:21:00,
2013-09-17 09:26:00,51.2,41.4,30.46,NE,38,6.9,6.9,69,0.00,CLR,,0.00,WeatherDisplay:10.37,2013-09-17 13:26:00,
2013-09-17 09:31:00,51.9,42.5,30.46,East,93,6.9,6.9,70,0.00,CLR,,0.00,WeatherDisplay:10.37,2013-09-17 13:31:00,
2013-09-17 09:36:00,52.4,42.6,30.46,NNE,18,4.6,4.6,69,0.00,CLR,,0.00,WeatherDisplay:10.37,2013-09-17 13:36:00,
2013-09-17 09:41:00,52.8,42.9,30.46,NNE,14,4.8,4.8,69,0.00,CLR,,0.00,WeatherDisplay:10.37,2013-09-17 13:41:00,
2013-09-17 09:46:00,53.2,43.7,30.46,North,356,3.5,3.5,70,0.00,CLR,,0.00,WeatherDisplay:10.37,2013-09-17 13:46:00,
2013-09-17 09:51:00,53.4,42.8,30.46,NE,48,8.2,8.2,67,0.00,CLR,,0.00,WeatherDisplay:10.37,2013-09-17 13:51:00,
2013-09-17 09:56:00,53.6,43.7,30.46,North,6,0.0,0.0,69,0.00,CLR,,0.00,WeatherDisplay:10.37,2013-09-17 13:56:00,
2013-09-17 10:01:00,53.9,42.8,30.46,NW,325,0.0,0.0,66,0.00,CLR,,0.00,WeatherDisplay:10.37,2013-09-17 14:01:00,
2013-09-17 10:06:00,54.2,43.1,30.46,NW,325,4.5,4.5,66,0.00,CLR,,0.00,WeatherDisplay:10.37,2013-09-17 14:06:00,
2013-09-17 10:11:00,54.8,43.3,30.45,NNW,347,5.8,5.8,65,0.00,CLR,,0.00,WeatherDisplay:10.37,2013-09-17 14:11:00,
2013-09-17 10:16:00,55.1,44.0,30.45,SE,131,0.0,0.0,66,0.00,CLR,,0.00,WeatherDisplay:10.37,2013-09-17 14:16:00,
2013-09-17 10:21:00,55.0,43.1,30.45,NE,35,5.8,5.8,64,0.00,CLR,,0.00,WeatherDisplay:10.37,2013-09-17 14:21:00,
2013-09-17 10:26:00,55.5,43.6,30.45,ENE,58,0.0,0.0,64,0.00,CLR,,0.00,WeatherDisplay:10.37,2013-09-17 14:26:00,
2013-09-17 10:31:00,55.9,44.3,30.45,NNE,20,3.7,3.7,65,0.00,CLR,,0.00,WeatherDisplay:10.37,2013-09-17 14:31:00,
2013-09-17 10:36:00,56.4,42.3,30.45,ENE,76,1.9,1.9,59,0.00,CLR,,0.00,WeatherDisplay:10.37,2013-09-17 14:36:00,
2013-09-17 10:41:00,56.2,43.8,30.44,NNW,332,0.0,0.0,63,0.00,CLR,,0.00,WeatherDisplay:10.37,2013-09-17 14:41:00,
2013-09-17 10:46:00,56.4,44.4,30.45,NE,34,5.2,5.2,64,0.00,CLR,,0.00,WeatherDisplay:10.37,2013-09-17 14:46:00,
2013-09-17 10:51:00,56.6,43.8,30.44,North,11,0.0,0.0,62,0.00,CLR,,0.00,WeatherDisplay:10.37,2013-09-17 14:51:00,
2013-09-17 10:56:00,56.5,43.7,30.44,NE,44,3.5,3.5,62,0.00,CLR,,0.00,WeatherDisplay:10.37,2013-09-17 14:56:00,
2013-09-17 11:01:00,56.4,43.1,30.44,NNE,27,4.8,4.8,61,0.00,CLR,,0.00,WeatherDisplay:10.37,2013-09-17 15:01:00,
2013-09-17 11:06:00,56.4,43.1,30.45,ENE,68,6.9,6.9,61,0.00,CLR,,0.00,WeatherDisplay:10.37,2013-09-17 15:06:00,
2013-09-17 11:11:00,56.1,42.4,30.44,NNW,328,4.6,4.6,60,0.00,CLR,,0.00,WeatherDisplay:10.37,2013-09-17 15:11:00,
2013-09-17 11:16:00,56.0,42.3,30.44,WSW,248,4.4,4.4,60,0.00,CLR,,0.00,WeatherDisplay:10.37,2013-09-17 15:16:00,
2013-09-17 11:21:00,56.2,43.0,30.44,WNW,296,2.3,2.3,61,0.00,CLR,,0.00,WeatherDisplay:10.37,2013-09-17 15:21:00,
2013-09-17 11:26:00,56.5,42.8,30.44,North,11,6.9,6.9,60,0.00,CLR,,0.00,WeatherDisplay:10.37,2013-09-17 15:26:00,
2013-09-17 11:31:00,56.5,42.8,30.44,ENE,76,1.2,0.0,60,0.00,CLR,,0.00,WeatherDisplay:10.37,2013-09-17 15:31:00,
2013-09-17 11:36:00,56.5,43.2,30.43,SSE,164,5.3,5.3,61,0.00,CLR,,0.00,WeatherDisplay:10.37,2013-09-17 15:36:00,
2013-09-17 11:41:00,56.9,42.7,30.43,NNE,17,6.1,6.1,59,0.00,CLR,,0.00,WeatherDisplay:10.37,2013-09-17 15:41:00,
2013-09-17 11:46:00,56.6,42.9,30.42,NNE,32,3.5,0.0,60,0.00,CLR,,0.00,WeatherDisplay:10.37,2013-09-17 15:46:00,
2013-09-17 11:51:00,56.8,44.0,30.42,NNE,25,1.4,0.0,62,0.00,CLR,,0.00,WeatherDisplay:10.37,2013-09-17 15:51:00,
2013-09-17 11:56:00,57.4,44.5,30.42,East,83,1.7,1.7,62,0.00,CLR,,0.00,WeatherDisplay:10.37,2013-09-17 15:56:00,
2013-09-17 12:01:00,57.6,44.3,30.42,NE,47,2.4,2.4,61,0.00,CLR,,0.00,WeatherDisplay:10.37,2013-09-17 16:01:00,
2013-09-17 12:06:00,57.9,44.1,30.42,NNW,340,9.2,9.2,60,0.00,CLR,,0.00,WeatherDisplay:10.37,2013-09-17 16:06:00,
2013-09-17 12:11:00,57.7,44.4,30.42,ESE,104,2.3,0.0,61,0.00,CLR,,0.00,WeatherDisplay:10.37,2013-09-17 16:11:00,
2013-09-17 12:16:00,57.9,44.6,30.42,NNE,24,3.8,3.8,61,0.00,CLR,,0.00,WeatherDisplay:10.37,2013-09-17 16:16:00,
2013-09-17 12:21:00,58.2,44.4,30.41,West,280,0.0,0.0,60,0.00,CLR,,0.00,WeatherDisplay:10.37,2013-09-17 16:21:00,
2013-09-17 12:26:00,58.7,44.9,30.41,North,3,5.8,5.8,60,0.00,CLR,,0.00,WeatherDisplay:10.37,2013-09-17 16:26:00,
2013-09-17 12:31:00,58.6,43.0,30.41,North,349,1.2,0.0,56,0.00,CLR,,0.00,WeatherDisplay:10.37,2013-09-17 16:31:00,
2013-09-17 12:36:00,58.9,45.9,30.41,East,92,1.2,1.2,62,0.00,CLR,,0.00,WeatherDisplay:10.37,2013-09-17 16:36:00,
2013-09-17 12:41:00,58.9,44.6,30.41,East,93,5.1,5.1,59,0.00,CLR,,0.00,WeatherDisplay:10.37,2013-09-17 16:41:00,
2013-09-17 12:46:00,59.3,44.6,30.41,NW,306,4.6,4.6,58,0.00,CLR,,0.00,WeatherDisplay:10.37,2013-09-17 16:46:00,
2013-09-17 12:51:00,59.2,44.0,30.40,East,79,0.0,0.0,57,0.00,CLR,,0.00,WeatherDisplay:10.37,2013-09-17 16:51:00,
2013-09-17 12:56:00,59.7,45.8,30.40,NE,40,3.5,3.5,60,0.00,CLR,,0.00,WeatherDisplay:10.37,2013-09-17 16:56:00,
2013-09-17 13:01:00,59.6,42.5,30.40,NNE,24,5.0,5.0,53,0.00,CLR,,0.00,WeatherDisplay:10.37,2013-09-17 17:01:00,
2013-09-17 13:07:00,59.8,44.6,30.40,East,86,5.0,5.0,57,0.00,CLR,,0.00,WeatherDisplay:10.37,2013-09-17 17:07:00,
2013-09-17 13:12:00,59.7,44.0,30.40,SE,130,5.1,5.1,56,0.00,CLR,,0.00,WeatherDisplay:10.37,2013-09-17 17:12:00,
2013-09-17 13:17:00,60.1,44.8,30.40,NNE,18,4.2,4.2,57,0.00,CLR,,0.00,WeatherDisplay:10.37,2013-09-17 17:17:00,
2013-09-17 13:22:00,60.2,44.5,30.40,NE,48,4.6,4.6,56,0.00,CLR,,0.00,WeatherDisplay:10.37,2013-09-17 17:22:00,
2013-09-17 13:27:00,60.6,44.4,30.39,NE,40,2.3,2.3,55,0.00,CLR,,0.00,WeatherDisplay:10.37,2013-09-17 17:27:00,
2013-09-17 13:32:00,60.9,45.1,30.39,North,10,3.7,3.7,56,0.00,CLR,,0.00,WeatherDisplay:10.37,2013-09-17 17:32:00,
2013-09-17 13:37:00,60.9,42.7,30.39,NNE,16,3.5,3.5,51,0.00,CLR,,0.00,WeatherDisplay:10.37,2013-09-17 17:37:00,
2013-09-17 13:42:00,60.9,44.2,30.39,NNE,16,0.0,0.0,54,0.00,CLR,,0.00,WeatherDisplay:10.37,2013-09-17 17:42:00,
2013-09-17 13:47:00,61.0,44.3,30.39,NW,313,5.5,5.5,54,0.00,CLR,,0.00,WeatherDisplay:10.37,2013-09-17 17:47:00,
2013-09-17 13:52:00,60.9,44.7,30.38,East,89,3.5,3.5,55,0.00,CLR,,0.00,WeatherDisplay:10.37,2013-09-17 17:52:00,
2013-09-17 13:57:00,61.0,45.2,30.38,East,95,6.9,6.9,56,0.00,CLR,,0.00,WeatherDisplay:10.37,2013-09-17 17:57:00,
2013-09-17 14:02:00,61.2,42.4,30.38,NNE,31,0.0,0.0,50,0.00,CLR,,0.00,WeatherDisplay:10.37,2013-09-17 18:02:00,
2013-09-17 14:07:00,61.3,44.1,30.38,West,260,6.3,6.3,53,0.00,CLR,,0.00,WeatherDisplay:10.37,2013-09-17 18:07:00,
2013-09-17 14:12:00,61.6,42.3,30.38,NNE,20,2.3,2.3,49,0.00,CLR,,0.00,WeatherDisplay:10.37,2013-09-17 18:12:00,
2013-09-17 14:18:00,62.0,43.2,30.38,North,357,4.2,4.2,50,0.00,CLR,,0.00,WeatherDisplay:10.37,2013-09-17 18:18:00,
2013-09-17 14:23:00,61.9,43.1,30.38,East,79,2.3,2.3,50,0.00,CLR,,0.00,WeatherDisplay:10.37,2013-09-17 18:23:00,
2013-09-17 14:28:00,62.1,44.3,30.38,North,11,5.6,5.6,52,0.00,CLR,,0.00,WeatherDisplay:10.37,2013-09-17 18:28:00,
2013-09-17 14:33:00,62.2,42.8,30.38,NE,48,2.3,0.0,49,0.00,CLR,,0.00,WeatherDisplay:10.37,2013-09-17 18:33:00,
2013-09-17 14:38:00,62.3,44.0,30.37,NNW,329,4.6,4.6,51,0.00,CLR,,0.00,WeatherDisplay:10.37,2013-09-17 18:38:00,
2013-09-17 14:43:00,62.4,43.5,30.37,NE,34,5.0,5.0,50,0.00,CLR,,0.00,WeatherDisplay:10.37,2013-09-17 18:43:00,
2013-09-17 14:48:00,62.2,43.9,30.37,East,96,4.5,4.5,51,0.00,CLR,,0.00,WeatherDisplay:10.37,2013-09-17 18:48:00,
2013-09-17 14:53:00,62.4,43.5,30.37,SSE,164,0.0,0.0,50,0.00,CLR,,0.00,WeatherDisplay:10.37,2013-09-17 18:53:00,
2013-09-17 14:58:00,62.3,43.5,30.37,North,3,2.3,0.0,50,0.00,CLR,,0.00,WeatherDisplay:10.37,2013-09-17 18:58:00,
2013-09-17 15:03:00,62.7,43.3,30.36,NE,48,6.9,6.9,49,0.00,CLR,,0.00,WeatherDisplay:10.37,2013-09-17 19:03:00,
2013-09-17 15:08:00,62.9,44.0,30.36,NE,35,3.5,3.5,50,0.00,CLR,,0.00,WeatherDisplay:10.37,2013-09-17 19:08:00,
2013-09-17 15:13:00,62.8,41.7,30.36,NE,56,3.5,3.5,46,0.00,CLR,,0.00,WeatherDisplay:10.37,2013-09-17 19:13:00,
2013-09-17 15:18:00,62.7,42.8,30.36,NE,56,2.7,0.0,48,0.00,CLR,,0.00,WeatherDisplay:10.37,2013-09-17 19:18:00,
2013-09-17 15:23:00,62.5,41.5,30.36,NE,42,0.4,0.0,46,0.00,CLR,,0.00,WeatherDisplay:10.37,2013-09-17 19:23:00,
2013-09-17 15:28:00,62.6,42.1,30.36,ENE,73,3.5,3.5,47,0.00,CLR,,0.00,WeatherDisplay:10.37,2013-09-17 19:28:00,
2013-09-17 15:33:00,62.8,42.8,30.35,ENE,73,1.2,0.0,48,0.00,CLR,,0.00,WeatherDisplay:10.37,2013-09-17 19:33:00,
2013-09-17 15:38:00,62.7,41.6,30.35,ENE,73,0.0,0.0,46,0.00,CLR,,0.00,WeatherDisplay:10.37,2013-09-17 19:38:00,
2013-09-17 15:43:00,62.7,41.6,30.35,NE,40,0.0,0.0,46,0.00,CLR,,0.00,WeatherDisplay:10.37,2013-09-17 19:43:00,
2013-09-17 15:48:00,63.0,41.9,30.35,NNE,14,2.3,2.3,46,0.00,CLR,,0.00,WeatherDisplay:10.37,2013-09-17 19:48:00,
2013-09-17 15:53:00,62.5,43.1,30.35,NNE,14,0.0,0.0,49,0.00,CLR,,0.00,WeatherDisplay:10.37,2013-09-17 19:53:00,
2013-09-17 15:58:00,62.7,43.3,30.35,NW,315,5.8,5.8,49,0.00,CLR,,0.00,WeatherDisplay:10.37,2013-09-17 19:58:00,
2013-09-17 16:03:00,62.9,40.7,30.35,North,356,0.0,0.0,44,0.00,CLR,,0.00,WeatherDisplay:10.37,2013-09-17 20:03:00,
2013-09-17 16:08:00,63.0,41.3,30.35,ENE,62,3.3,3.3,45,0.00,CLR,,0.00,WeatherDisplay:10.37,2013-09-17 20:08:00,
2013-09-17 16:13:00,62.8,40.6,30.35,NE,41,3.5,3.5,44,0.00,CLR,,0.00,WeatherDisplay:10.37,2013-09-17 20:13:00,
2013-09-17 16:18:00,62.9,41.8,30.35,NE,55,0.0,0.0,46,0.00,CLR,,0.00,WeatherDisplay:10.37,2013-09-17 20:18:00,
2013-09-17 16:23:00,62.7,40.5,30.35,NE,55,0.0,0.0,44,0.00,CLR,,0.00,WeatherDisplay:10.37,2013-09-17 20:23:00,
2013-09-17 16:28:00,62.4,40.2,30.35,NE,55,0.0,0.0,44,0.00,CLR,,0.00,WeatherDisplay:10.37,2013-09-17 20:28:00,
2013-09-17 16:33:00,62.3,40.7,30.35,NE,56,0.0,0.0,45,0.00,CLR,,0.00,WeatherDisplay:10.37,2013-09-17 20:33:00,
2013-09-17 16:38:00,62.5,42.0,30.34,NE,56,0.0,0.0,47,0.00,CLR,,0.00,WeatherDisplay:10.37,2013-09-17 20:38:00,
2013-09-17 16:43:00,62.0,41.6,30.34,NE,56,0.0,0.0,47,0.00,CLR,,0.00,WeatherDisplay:10.37,2013-09-17 20:43:00,
2013-09-17 16:48:00,62.0,42.1,30.34,NE,56,0.0,0.0,48,0.00,CLR,,0.00,WeatherDisplay:10.37,2013-09-17 20:48:00,
2013-09-17 16:53:00,62.0,39.9,30.34,NE,56,0.0,0.0,44,0.00,CLR,,0.00,WeatherDisplay:10.37,2013-09-17 20:53:00,
2013-09-17 16:58:00,62.4,42.5,30.34,NE,56,0.0,0.0,48,0.00,CLR,,0.00,WeatherDisplay:10.37,2013-09-17 20:58:00,
2013-09-17 17:03:00,62.0,40.4,30.34,NE,56,0.0,0.0,45,0.00,CLR,,0.00,WeatherDisplay:10.37,2013-09-17 21:03:00,
2013-09-17 17:08:00,62.0,40.4,30.34,NE,56,0.0,0.0,45,0.00,CLR,,0.00,WeatherDisplay:10.37,2013-09-17 21:08:00,
2013-09-17 17:13:00,61.8,41.9,30.34,NE,56,0.0,0.0,48,0.00,CLR,,0.00,WeatherDisplay:10.37,2013-09-17 21:13:00,
2013-09-17 17:18:00,61.7,41.8,30.34,NE,56,0.0,0.0,48,0.00,CLR,,0.00,WeatherDisplay:10.37,2013-09-17 21:18:00,
2013-09-17 17:23:00,61.4,42.6,30.34,NE,56,0.0,0.0,50,0.00,CLR,,0.00,WeatherDisplay:10.37,2013-09-17 21:23:00,
2013-09-17 17:28:00,61.5,43.2,30.34,NE,56,0.0,0.0,51,0.00,CLR,,0.00,WeatherDisplay:10.37,2013-09-17 21:28:00,
2013-09-17 17:33:00,61.1,42.9,30.34,NE,56,0.0,0.0,51,0.00,CLR,,0.00,WeatherDisplay:10.37,2013-09-17 21:33:00,
2013-09-17 17:38:00,60.4,42.2,30.34,NE,56,0.0,0.0,51,0.00,CLR,,0.00,WeatherDisplay:10.37,2013-09-17 21:38:00,
2013-09-17 17:43:00,60.6,42.9,30.34,NE,56,0.0,0.0,52,0.00,CLR,,0.00,WeatherDisplay:10.37,2013-09-17 21:43:00,
2013-09-17 17:48:00,60.3,45.5,30.35,NE,56,0.0,0.0,58,0.00,CLR,,0.00,WeatherDisplay:10.37,2013-09-17 21:48:00,
2013-09-17 17:53:00,59.9,46.0,30.34,NE,56,0.0,0.0,60,0.00,CLR,,0.00,WeatherDisplay:10.37,2013-09-17 21:53:00,
2013-09-17 17:58:00,59.5,44.3,30.35,NE,56,0.0,0.0,57,0.00,CLR,,0.00,WeatherDisplay:10.37,2013-09-17 21:58:00,
2013-09-17 18:03:00,59.4,47.3,30.35,NE,56,0.0,0.0,64,0.00,CLR,,0.00,WeatherDisplay:10.37,2013-09-17 22:03:00,
2013-09-17 18:08:00,58.8,47.1,30.35,NE,56,0.0,0.0,65,0.00,CLR,,0.00,WeatherDisplay:10.37,2013-09-17 22:08:00,
2013-09-17 18:13:00,58.3,47.4,30.34,NE,56,0.0,0.0,67,0.00,CLR,,0.00,WeatherDisplay:10.37,2013-09-17 22:13:00,
2013-09-17 18:18:00,57.6,47.2,30.34,NE,56,0.0,0.0,68,0.00,CLR,,0.00,WeatherDisplay:10.37,2013-09-17 22:18:00,
2013-09-17 18:23:00,57.1,47.1,30.34,NE,56,0.0,0.0,69,0.00,CLR,,0.00,WeatherDisplay:10.37,2013-09-17 22:23:00,
2013-09-17 18:28:00,56.6,47.3,30.34,NE,56,0.0,0.0,71,0.00,CLR,,0.00,WeatherDisplay:10.37,2013-09-17 22:28:00,
2013-09-17 18:33:00,56.5,48.0,30.35,NE,56,0.0,0.0,73,0.00,CLR,,0.00,WeatherDisplay:10.37,2013-09-17 22:33:00,
2013-09-17 18:38:00,56.1,48.0,30.35,NE,56,0.0,0.0,74,0.00,CLR,,0.00,WeatherDisplay:10.37,2013-09-17 22:38:00,
2013-09-17 18:43:00,55.2,47.1,30.35,NE,56,0.0,0.0,74,0.00,CLR,,0.00,WeatherDisplay:10.37,2013-09-17 22:43:00,
2013-09-17 18:48:00,54.7,46.6,30.35,NE,56,0.0,0.0,74,0.00,CLR,,0.00,WeatherDisplay:10.37,2013-09-17 22:48:00,
2013-09-17 18:53:00,54.3,46.6,30.35,NE,56,0.0,0.0,75,0.00,CLR,,0.00,WeatherDisplay:10.37,2013-09-17 22:53:00,
2013-09-17 18:58:00,53.8,46.4,30.35,NE,56,0.0,0.0,76,0.00,CLR,,0.00,WeatherDisplay:10.37,2013-09-17 22:58:00,
2013-09-17 19:03:00,53.6,46.6,30.35,NE,56,0.0,0.0,77,0.00,CLR,,0.00,WeatherDisplay:10.37,2013-09-17 23:03:00,
2013-09-17 19:08:00,53.2,46.2,30.35,NE,56,0.0,0.0,77,0.00,CLR,,0.00,WeatherDisplay:10.37,2013-09-17 23:08:00,
2013-09-17 19:13:00,53.0,46.4,30.35,NE,56,0.0,0.0,78,0.00,CLR,,0.00,WeatherDisplay:10.37,2013-09-17 23:13:00,
2013-09-17 19:18:00,52.6,46.0,30.35,NE,56,0.0,0.0,78,0.00,CLR,,0.00,WeatherDisplay:10.37,2013-09-17 23:18:00,
2013-09-17 19:23:00,52.2,45.9,30.35,NE,56,0.0,0.0,79,0.00,CLR,,0.00,WeatherDisplay:10.37,2013-09-17 23:23:00,
2013-09-17 19:28:00,52.1,45.8,30.36,NE,56,0.0,0.0,79,0.00,CLR,,0.00,WeatherDisplay:10.37,2013-09-17 23:28:00,
2013-09-17 19:33:00,51.9,45.6,30.36,NE,56,0.0,0.0,79,0.00,CLR,,0.00,WeatherDisplay:10.37,2013-09-17 23:33:00,
2013-09-17 19:38:00,51.7,45.4,30.36,NE,56,0.0,0.0,79,0.00,CLR,,0.00,WeatherDisplay:10.37,2013-09-17 23:38:00,
2013-09-17 19:43:00,51.6,45.3,30.36,NE,56,0.0,0.0,79,0.00,CLR,,0.00,WeatherDisplay:10.37,2013-09-17 23:43:00,
2013-09-17 19:48:00,51.3,45.7,30.37,NE,56,0.0,0.0,81,0.00,CLR,,0.00,WeatherDisplay:10.37,2013-09-17 23:48:00,
2013-09-17 19:53:00,51.1,45.5,30.37,NE,56,0.0,0.0,81,0.00,CLR,,0.00,WeatherDisplay:10.37,2013-09-17 23:53:00,
2013-09-17 19:58:00,50.8,45.5,30.37,NE,56,0.0,0.0,82,0.00,CLR,,0.00,WeatherDisplay:10.37,2013-09-17 23:58:00,
2013-09-17 20:03:00,50.6,45.3,30.37,NE,56,0.0,0.0,82,0.00,CLR,,0.00,WeatherDisplay:10.37,2013-09-18 00:03:00,
2013-09-17 20:08:00,50.5,45.2,30.37,NE,56,0.0,0.0,82,0.00,CLR,,0.00,WeatherDisplay:10.37,2013-09-18 00:08:00,
2013-09-17 20:13:00,50.3,45.4,30.37,NE,56,0.0,0.0,83,0.00,CLR,,0.00,WeatherDisplay:10.37,2013-09-18 00:13:00,
2013-09-17 20:18:00,50.2,45.6,30.37,NE,56,0.0,0.0,84,0.00,CLR,,0.00,WeatherDisplay:10.37,2013-09-18 00:18:00,
2013-09-17 20:23:00,50.0,45.4,30.37,NE,56,0.0,0.0,84,0.00,CLR,,0.00,WeatherDisplay:10.37,2013-09-18 00:23:00,
2013-09-17 20:28:00,49.9,45.9,30.37,NE,56,0.0,0.0,86,0.00,CLR,,0.00,WeatherDisplay:10.37,2013-09-18 00:28:00,
2013-09-17 20:33:00,49.8,45.8,30.37,NE,56,0.0,0.0,86,0.00,CLR,,0.00,WeatherDisplay:10.37,2013-09-18 00:33:00,
2013-09-17 20:38:00,49.6,45.6,30.37,NE,56,0.0,0.0,86,0.00,CLR,,0.00,WeatherDisplay:10.37,2013-09-18 00:38:00,
2013-09-17 20:43:00,49.5,45.5,30.37,NE,56,0.0,0.0,86,0.00,CLR,,0.00,WeatherDisplay:10.37,2013-09-18 00:43:00,
2013-09-17 20:48:00,49.3,45.6,30.37,NE,56,0.0,0.0,87,0.00,CLR,,0.00,WeatherDisplay:10.37,2013-09-18 00:48:00,
2013-09-17 20:53:00,49.3,45.6,30.37,NE,56,0.0,0.0,87,0.00,CLR,,0.00,WeatherDisplay:10.37,2013-09-18 00:53:00,
2013-09-17 20:58:00,49.3,45.9,30.37,NE,56,0.0,0.0,88,0.00,CLR,,0.00,WeatherDisplay:10.37,2013-09-18 00:58:00,
2013-09-17 21:03:00,49.3,45.9,30.37,NE,56,0.0,0.0,88,0.00,CLR,,0.00,WeatherDisplay:10.37,2013-09-18 01:03:00,
2013-09-17 21:08:00,49.2,45.8,30.37,NE,56,0.0,0.0,88,0.00,CLR,,0.00,WeatherDisplay:10.37,2013-09-18 01:08:00,
2013-09-17 21:13:00,49.1,45.7,30.37,NE,56,0.0,0.0,88,0.00,CLR,,0.00,WeatherDisplay:10.37,2013-09-18 01:13:00,
2013-09-17 21:18:00,49.0,45.6,30.37,NE,56,0.0,0.0,88,0.00,CLR,,0.00,WeatherDisplay:10.37,2013-09-18 01:18:00,
2013-09-17 21:23:00,49.3,46.2,30.37,NE,56,0.0,0.0,89,0.00,CLR,,0.00,WeatherDisplay:10.37,2013-09-18 01:23:00,
2013-09-17 21:28:00,49.0,45.9,30.37,NE,56,0.0,0.0,89,0.00,CLR,,0.00,WeatherDisplay:10.37,2013-09-18 01:28:00,
2013-09-17 21:33:00,48.8,45.7,30.37,NE,56,0.0,0.0,89,0.00,CLR,,0.00,WeatherDisplay:10.37,2013-09-18 01:33:00,
2013-09-17 21:38:00,48.9,46.1,30.37,NE,56,0.0,0.0,90,0.00,CLR,,0.00,WeatherDisplay:10.37,2013-09-18 01:38:00,
2013-09-17 21:43:00,48.9,46.1,30.37,NE,56,0.0,0.0,90,0.00,CLR,,0.00,WeatherDisplay:10.37,2013-09-18 01:43:00,
2013-09-17 21:48:00,48.5,46.0,30.37,NE,56,0.0,0.0,91,0.00,CLR,,0.00,WeatherDisplay:10.37,2013-09-18 01:48:00,
2013-09-17 21:53:00,48.3,45.8,30.37,NE,56,0.0,0.0,91,0.00,CLR,,0.00,WeatherDisplay:10.37,2013-09-18 01:53:00,
2013-09-17 21:58:00,48.3,46.1,30.37,NE,56,0.0,0.0,92,0.00,CLR,,0.00,WeatherDisplay:10.37,2013-09-18 01:58:00,
2013-09-17 22:03:00,48.3,46.1,30.38,NE,56,0.0,0.0,92,0.00,CLR,,0.00,WeatherDisplay:10.37,2013-09-18 02:03:00,
2013-09-17 22:09:00,48.1,45.9,30.38,NE,56,0.0,0.0,92,0.00,CLR,,0.00,WeatherDisplay:10.37,2013-09-18 02:09:00,
2013-09-17 22:14:00,48.2,46.0,30.38,NE,56,0.0,0.0,92,0.00,CLR,,0.00,WeatherDisplay:10.37,2013-09-18 02:14:00,
2013-09-17 22:19:00,48.1,45.9,30.38,NE,56,0.0,0.0,92,0.00,CLR,,0.00,WeatherDisplay:10.37,2013-09-18 02:19:00,
2013-09-17 22:24:00,48.1,45.9,30.38,NE,56,0.0,0.0,92,0.00,CLR,,0.00,WeatherDisplay:10.37,2013-09-18 02:24:00,
2013-09-17 22:29:00,47.9,45.7,30.38,NE,56,0.0,0.0,92,0.00,CLR,,0.00,WeatherDisplay:10.37,2013-09-18 02:29:00,
2013-09-17 22:34:00,47.9,46.0,30.38,NE,56,0.0,0.0,93,0.00,CLR,,0.00,WeatherDisplay:10.37,2013-09-18 02:34:00,
2013-09-17 22:39:00,47.7,45.8,30.38,NE,56,0.0,0.0,93,0.00,CLR,,0.00,WeatherDisplay:10.37,2013-09-18 02:39:00,
2013-09-17 22:44:00,47.6,45.7,30.38,NE,56,0.0,0.0,93,0.00,CLR,,0.00,WeatherDisplay:10.37,2013-09-18 02:44:00,
2013-09-17 22:49:00,47.8,45.9,30.38,NE,56,0.0,0.0,93,0.00,CLR,,0.00,WeatherDisplay:10.37,2013-09-18 02:49:00,
2013-09-17 22:54:00,47.5,45.9,30.38,NE,56,0.0,0.0,94,0.00,CLR,,0.00,WeatherDisplay:10.37,2013-09-18 02:54:00,
2013-09-17 22:59:00,47.4,45.8,30.38,NE,56,0.0,0.0,94,0.00,CLR,,0.00,WeatherDisplay:10.37,2013-09-18 02:59:00,
2013-09-17 23:04:00,47.4,45.8,30.38,NE,56,0.0,0.0,94,0.00,CLR,,0.00,WeatherDisplay:10.37,2013-09-18 03:04:00,
2013-09-17 23:09:00,47.4,45.8,30.37,NE,56,0.0,0.0,94,0.00,CLR,,0.00,WeatherDisplay:10.37,2013-09-18 03:09:00,
2013-09-17 23:14:00,47.3,45.7,30.38,NE,56,0.0,0.0,94,0.00,CLR,,0.00,WeatherDisplay:10.37,2013-09-18 03:14:00,
2013-09-17 23:19:00,47.1,45.5,30.38,NE,56,0.0,0.0,94,0.00,CLR,,0.00,WeatherDisplay:10.37,2013-09-18 03:19:00,
2013-09-17 23:24:00,47.1,45.5,30.38,NE,56,0.0,0.0,94,0.00,CLR,,0.00,WeatherDisplay:10.37,2013-09-18 03:24:00,
2013-09-17 23:29:00,46.9,45.3,30.38,NE,56,0.0,0.0,94,0.00,CLR,,0.00,WeatherDisplay:10.37,2013-09-18 03:29:00,
2013-09-17 23:34:00,46.8,45.5,30.38,NE,56,0.0,0.0,95,0.00,CLR,,0.00,WeatherDisplay:10.37,2013-09-18 03:34:00,
2013-09-17 23:39:00,47.0,45.7,30.38,NE,56,0.0,0.0,95,0.00,CLR,,0.00,WeatherDisplay:10.37,2013-09-18 03:39:00,
2013-09-17 23:44:00,46.7,45.4,30.37,NE,56,0.0,0.0,95,0.00,CLR,,0.00,WeatherDisplay:10.37,2013-09-18 03:44:00,
2013-09-17 23:49:00,46.9,45.6,30.37,NE,56,0.0,0.0,95,0.00,CLR,,0.00,WeatherDisplay:10.37,2013-09-18 03:49:00,
2013-09-17 23:54:00,46.8,45.5,30.37,NE,56,0.0,0.0,95,0.00,CLR,,0.00,WeatherDisplay:10.37,2013-09-18 03:54:00,
2013-09-17 23:59:00,46.9,45.6,30.37,NE,56,0.0,0.0,95,0.00,CLR,,0.00,WeatherDisplay:10.37,2013-09-18 03:59:00,